TimeCDT,TemperatureF,Dew PointF,Humidity,Sea Level PressureIn,VisibilityMPH,Wind Direction,Wind SpeedMPH,Gust SpeedMPH,PrecipitationIn,Events,Conditions,WindDirDegrees,DateUTC
12:53 AM,64.9,55.0,70,30.03,10.0,East,6.9,-,N/A,,Partly Cloudy,80,2013-03-21 05:53:00
1:53 AM,64.0,54.0,70,30.00,10.0,SE,5.8,-,N/A,,Mostly Cloudy,140,2013-03-21 06:53:00
2:53 AM,62.1,55.0,78,29.98,10.0,SSE,3.5,-,N/A,,Scattered Clouds,150,2013-03-21 07:53:00
3:53 AM,62.1,55.9,80,29.94,10.0,East,4.6,-,N/A,,Clear,100,2013-03-21 08:53:00
4:53 AM,59.0,54.0,83,29.91,10.0,SE,5.8,-,N/A,,Clear,130,2013-03-21 09:53:00
5:53 AM,61.0,55.9,83,29.90,10.0,ESE,5.8,-,N/A,,Clear,110,2013-03-21 10:53:00
6:29 AM,62.6,57.2,82,29.90,10.0,ESE,9.2,-,N/A,,Mostly Cloudy,110,2013-03-21 11:29:00
6:53 AM,63.0,57.0,81,29.91,10.0,ESE,6.9,-,N/A,,Overcast,110,2013-03-21 11:53:00
7:53 AM,64.9,57.9,78,29.90,10.0,East,6.9,-,N/A,,Overcast,100,2013-03-21 12:53:00
8:53 AM,66.9,59.0,76,29.90,10.0,ESE,9.2,-,N/A,,Overcast,110,2013-03-21 13:53:00
9:27 AM,69.8,59.0,68,29.91,10.0,ESE,12.7,-,N/A,,Overcast,110,2013-03-21 14:27:00
9:53 AM,70.0,60.1,71,29.90,10.0,SE,15.0,-,N/A,,Overcast,130,2013-03-21 14:53:00
10:42 AM,-9999,-9999,N/A,29.90,10.0,SE,13.8,-,N/A,,Overcast,130,2013-03-21 15:42:00
10:53 AM,73.0,61.0,66,29.89,-9999.0,ESE,18.4,-,N/A,,Overcast,120,2013-03-21 15:53:00
11:53 AM,75.0,62.1,64,29.85,10.0,SE,20.7,-,0.00,,Overcast,130,2013-03-21 16:53:00
12:15 PM,75.2,60.8,61,29.84,10.0,SE,18.4,-,N/A,,Overcast,140,2013-03-21 17:15:00
12:53 PM,75.9,62.1,62,29.82,10.0,SSE,18.4,-,N/A,,Overcast,150,2013-03-21 17:53:00
1:53 PM,77.0,63.0,62,29.79,10.0,SSE,16.1,-,N/A,,Overcast,150,2013-03-21 18:53:00
2:17 PM,78.8,62.6,57,29.77,10.0,SE,18.4,25.3,N/A,,Overcast,140,2013-03-21 19:17:00
2:53 PM,80.6,62.6,54,29.75,10.0,SSE,16.1,-,N/A,,Overcast,160,2013-03-21 19:53:00
3:53 PM,81.0,64.0,56,29.70,10.0,SSE,15.0,23.0,N/A,,Overcast,150,2013-03-21 20:53:00
4:53 PM,79.0,64.0,60,29.68,10.0,SSE,19.6,26.5,N/A,,Overcast,150,2013-03-21 21:53:00
5:53 PM,79.0,64.9,62,29.66,10.0,SSE,16.1,23.0,N/A,,Overcast,160,2013-03-21 22:53:00
6:53 PM,78.1,64.9,64,29.65,10.0,SSE,17.3,-,N/A,,Scattered Clouds,150,2013-03-21 23:53:00
7:53 PM,75.0,64.9,71,29.68,10.0,SSE,17.3,-,N/A,,Overcast,150,2013-03-22 00:53:00
8:53 PM,73.9,64.9,73,29.68,10.0,SSE,11.5,-,N/A,,Overcast,150,2013-03-22 01:53:00
9:10 PM,73.4,64.4,73,29.69,10.0,SSE,16.1,21.9,N/A,,Overcast,150,2013-03-22 02:10:00
9:53 PM,73.9,66.0,76,29.69,10.0,SSE,17.3,23.0,N/A,,Overcast,150,2013-03-22 02:53:00
10:53 PM,73.9,66.0,76,29.70,10.0,SSE,16.1,-,N/A,,Overcast,150,2013-03-22 03:53:00
11:53 PM,73.9,66.9,79,29.69,10.0,SSE,17.3,25.3,N/A,,Overcast,160,2013-03-22 04:53:00